Showing default

THOR 7, 40613

Orbit data source: Space-Track

THOR 7, 40613 is a payload satellite owned by Telenor (NO) in GEO that was launched on Sun, 26 Apr 2015 UTC via an ARIANE 5ECA launch vehicle from the French Guiana (FRGUI). Payload-class satellites include a variety of spacecraft equipped with specific instruments for various scientific and technological missions. These include communications satellites like Starlink; space stations such as the ISS; scientific satellites like the Hubble; Earth observation satellites from companies like Planet Labs, Umbra, and HawkEye 360; GPS; miniature CubeSats for education and research; and military/defense satellites.

Not visible in the next 10 days
Identifier
40613, 2015-022A
Orbit
GEO
Country
Flag of NONO / NOR
Related business
Manufacturer
SS/Loral (MDA)
Mission
Operational Commercial Communications
Bus & Motor
LS-1300, R-4D
Mass
4,590 kg wet, ~3,000 kg dry
Launch date (UTC)
2015-04-26 (11 years ago)
Launch vehicle
ARIANE 5ECA
Launch site
French Guiana (FRGUI)
Object type
Payload
Rocket body
Debris
Shape & HBR
Box + 2 Pan, 12.4 m
Radar Cross Section
33.950 m², Large (>1 m²)

Expand to show TLE details & history
Last TLE update: 13 hours ago

TLE from 13 hours ago
0 THOR 7
1 40613U 15022A   25348.27351679  .00000010  00000-0  00000-0 0  9997
2 40613   0.0434 121.4110 0002547 142.9857 276.6098  1.00272428 38961
Epoch: 2025-12-14T06:33Z
TLE epoch observation values (Epoch: 2025-12-14T06:33:51.850Z)
Latitude
0.02321°
Longitude
-0.68666°
Altitude
35,784.654 km
Speed
3.075 km/s
True Right ascension
12h 03m 52s
True Declination
0° 01' 23"
Sunlit
Object was in daylight at epoch
Visualization orbit readout
Latitude
Unknown
Longitude
Unknown
Altitude
Unknown
Speed
Unknown
Apparent Right ascension
Unknown
Apparent Declination
Unknown
Sunlit
N/A
Visualization observer readout
Local Sidereal Time
18:31:21
Azimuth
Unknown
Elevation
Unknown
Doppler factor
Unknown
Orbital elements
Apogee altitude
35,798.225 km
Perigee altitude
35,776.746 km
Semi-major axis
42,165.622 km
Eccentricity
0.00025
Inclination
0.0434°
RAAN
121.411°
Arg. of periapsis
142.9857°
True anomaly
276.58081°
Mean anomaly
276.6098°
Eccentric anomaly
276.5953°
Mean motion
0.25067 °/min
Orbital period
1,436.14 mins
BSTAR
0
Loading maneuver chart data...
Computing Atmospheric mass density...
Loading historical data...
Loading historical data...
Loading historical data...
Loading historical data...
Loading historical data...
Loading historical data...
Loading historical data...
Other satellites on launch #22 in the year 2015 (2015-04-26 UTC)

Documentation

Showing up to 5 results
|